User: anonymous   Login
Location: Unspecified
(0.0000°N, 0.0000°E)
Time: 04:53:31
(UTC+02:00)
Language:

CZ-4 R/B - Orbit

View from above orbital plane
View from above orbital plane
View from above satellite
View from above satellite

Ground track
Ground track

The orbit data is extracted from the following two-line orbital elements,

1 28059U 03049C   16177.19926817  .00000000  00000-0  12268-4 0  9998
2 28059  98.6108  48.9870 0049047 255.2212 214.5191 14.52447174671856
Epoch (UTC): 25 June 2016 04:46:56
Eccentricity: 0.0049047
inclination: 98.6108°
perigee height: 683 km
apogee height: 752 km
right ascension of ascending node: 48.9870°
argument of perigee: 255.2212°
revolutions per day: 14.52447174
mean anomaly at epoch: 214.5191°
orbit number at epoch: 67185

The dashed part of the orbit path shows where the satellite is in the earth's shadow,  

DLR